Location: Kellogg
(38.0159°N, 90.0546°W)
Time: 22:19:29
(UTC+00:00)

Vanguard 1 - Pass Details

Date: 19 September 2024
Orbit: 648 x 3825 km, 34.3° (Epoch: 12 October)

Event Time Altitude Azimuth Distance (km) Brightness Sun altitude
Rises 18:49:33 0° 258° (WSW) 6,607 14.6 50.9°
Reaches altitude 10° 18:54:39 10° 257° (WSW) 5,091 14.2 50.5°
Maximum altitude 19:07:31 70° 177° (S) 1,561 12.5 49.3°
Drops below altitude 10° 19:14:20 10° 95° (E) 2,823 12.3 48.7°
Sets 19:16:24 0° 93° (E) 3,552 12.7 48.4°
